Regional Weather Roundup
Issued by NWS

Home | Current Version | Previous Version | Graphics & Text | Print | Product List | Glossary On
Versions: 1 2 3 4 5 6 7 8 9 10 11 12 13 14 15 16 17 18 19 20 21 22 23 24 25 26 27 28 29 30 31 32 33 34 35 36 37 38 39 40 41 42 43 44 45 46 47 48 49 50
000
ASUS43 KDMX 100003
RWRIA

WEATHER ROUNDUP FOR IOWA
NATIONAL WEATHER SERVICE DES MOINES IA
600 PM CST TUE FEB 09 2016

NOTE: "FAIR" INDICATES FEW OR NO CLOUDS BELOW 12,000 FEET WITH NO
SIGNIFICANT WEATHER AND/OR OBSTRUCTIONS TO VISIBILITY.

* - THESE STATIONS ARE NOT NWS STATIONS...THUS NOT UNDER NWS
QUALITY CONTROL.  THEY ALSO DO NOT REPORT WEATHER SUCH
AS PRECIPITATION OR FOG.

IAZ001>003-012>014-020>022-031>034-043>046-100100-
   NORTHWEST IOWA

CITY           SKY/WX    TMP DP  RH WIND       PRES   REMARKS
CARROLL *      CLEAR     18  10  73 NW21      30.18S WCI   1
CHEROKEE *     CLOUDY    20  12  72 NW9       30.21S WCI   9
DENISON *      CLOUDY    19  12  73 NW14G20   30.20S WCI   6
LE MARS *      CLOUDY    21  14  73 NW7       30.25S WCI  13
ORANGE CITY *  PTCLDY    19  12  73 NW7       30.21S WCI  10
SHELDON *      CLOUDY    19  14  79 NW13      30.18F WCI   7
SIOUX CITY     CLOUDY    25  14  63 NW12      30.25S WCI  14
6HR MIN TEMP:  18; 6HR MAX TEMP:  25;

SPENCER        CLOUDY    18   8  65 NW15      30.18R WCI   4
6HR MIN TEMP:  12; 6HR MAX TEMP:  18; 6HR PCP: TRACE;

STORM LAKE *   CLOUDY    18  12  79 NW21      30.18R WCI   1
$$

IAZ055>058-069>071-079>083-090>094-100100-
   SOUTHWEST IOWA

CITY           SKY/WX    TMP DP  RH WIND       PRES   REMARKS
ATLANTIC *     CLOUDY    19  10  68 NW14      30.22S WCI   6
AUDUBON *      MOCLDY    18  10  73 NW7       30.19F WCI   8
CLARINDA *     CLOUDY    21  10  63 NW12G20   30.26R WCI   9
COUNCIL BLFS * PTCLDY    19  10  68 NW7       30.25R WCI  10
CRESTON *      PTCLDY    16   7  67 NW18      30.19S WCI  -1
HARLAN  *      CLOUDY    18  10  73 NW14      30.26R WCI   4
LAMONI         CLEAR     18   6  59 NW17      30.17R WCI   3
6HR MIN TEMP:  18; 6HR MAX TEMP:  22;

RED OAK *      CLEAR     19  10  68 NW9G15    30.26R WCI   9
SHENANDOAH *   CLEAR     23  12  63 NW10      30.28R WCI  12
$$

IAZ047>049-059>061-072>074-084-100100-
   CENTRAL IOWA

CITY           SKY/WX    TMP DP  RH WIND       PRES   REMARKS
AMES           CLEAR     16   6  65 NW14      30.16R WCI   2
6HR MIN TEMP:  12; 6HR MAX TEMP:  17;

ANKENY *       CLOUDY    16   7  67 NW16      30.17S WCI   0
BOONE *        PTCLDY    16   7  67 NW15G22   30.14R WCI   1
CHARITON *     CLEAR     16   5  62 NW21G26   30.15R WCI  -2
DES MOINES     PTCLDY    17   6  62 NW17      30.17S WCI   1
6HR MIN TEMP:  14; 6HR MAX TEMP:  19;

GRINNELL*      CLEAR     14   7  73 NW23G29   30.11S WCI  -5
KNOXVILLE *    MOCLDY    16   5  62 NW21G30   30.14R WCI  -2
MARSHALLTOWN   CLEAR     13   5  70 NW20      30.11S WCI  -5
6HR MIN TEMP:  11; 6HR MAX TEMP:  15;

NEWTON *       FLURRIES  16   7  67 NW18G29   30.13S WCI  -1
PELLA *        CLEAR     16   7  67 NW15G21   30.15S WCI   1
$$

IAZ004>006-015-016-023>025-035-036-100100-
   NORTH CENTRAL IOWA

CITY           SKY/WX    TMP DP  RH WIND       PRES   REMARKS
ALGONA *       FLURRIES  14   9  79 NW15G23   30.14S WCI  -1
CLARION *      CLOUDY    14   7  73 NW22      30.13S WCI  -4
ESTHERVILLE    CLEAR     13   6  74 NW16      30.15S WCI  -3
6HR MIN TEMP:  11; 6HR MAX TEMP:  16;

FORT DODGE *   CLEAR     16   3  57 NW9G17    30.17R WCI   4
MASON CITY     CLEAR     11   2  67 NW21      30.12R WCI  -8
6HR MIN TEMP:  10; 6HR MAX TEMP:  14;

FOREST CITY *    N/A     14   3  62 NW14      30.12R WCI  -1
WEBSTER CITY * PTCLDY    14   7  73 NW24      30.13R WCI  -5
IOWA FALLS *     N/A     13   7  76 NW21      30.12S WCI  -5
$$

IAZ007>011-017>019-026>030-037>042-050>054-066-100100-
   NORTHEAST IOWA

CITY           SKY/WX    TMP DP  RH WIND       PRES   REMARKS
CEDAR RAPIDS   CLEAR     12   5  73 NW21G29   30.07R WCI  -7
6HR MIN TEMP:  12; 6HR MAX TEMP:  15;

CHARLES CITY * CLEAR     12   1  62 NW17      30.08R WCI  -5
CLINTON *      PTCLDY    13   6  74 NW15      30.03R WCI  -3
DECORAH *      CLEAR     12   0  57 NW13G20   30.02R WCI  -3
DUBUQUE        CLEAR     11   1  64 NW16      30.00R WCI  -6
6HR MIN TEMP:  11; 6HR MAX TEMP:  14;

MONTICELLO *   MOCLDY    12   3  67 NW16G22   30.04R WCI  -4
OELWEIN *      CLEAR     10   1  67 NW17      30.06R WCI  -7
WATERLOO       CLEAR     12   3  67 NW18      30.09R WCI  -6
6HR MIN TEMP:  10; 6HR MAX TEMP:  14;

$$

IAZ064-065-067-068-078-100100-
   EAST CENTRAL IOWA

CITY           SKY/WX    TMP DP  RH WIND       PRES   REMARKS
DAVENPORT      CLEAR     13   2  61 NW16G25   30.04R WCI  -3
6HR MIN TEMP:  13; 6HR MAX TEMP:  18;

IOWA CITY      PTCLDY    14   5  67 NW16      30.11R WCI  -2
6HR MIN TEMP:  14; 6HR MAX TEMP:  16;

MT. PLEASANT * CLEAR     18   7  63 NW14G22   30.10R WCI   4
MUSCATINE *    CLEAR     16   5  62 NW14G26   30.10R WCI   1
QUAD CITIES    CLEAR     14   2  58 NW12G21   30.05R WCI   0
6HR MIN TEMP:  14; 6HR MAX TEMP:  18;

$$

IAZ062-063-075>077-085>089-095>099-100100-
   SOUTHEAST IOWA

CITY           SKY/WX    TMP DP  RH WIND       PRES   REMARKS
BURLINGTON     CLEAR     15   5  64 NW13G20   30.08R WCI   1
6HR MIN TEMP:  15; 6HR MAX TEMP:  18; 6HR PCP: TRACE;

FAIRFIELD *    PTCLDY    14   5  67 NW16G26   30.11R WCI  -2
FORT MADISON * CLEAR     16   7  67 NW16      30.10R WCI   0
KEOKUK *       CLEAR     18   5  57 NW12G22   30.10R WCI   5
OSKALOOSA *      N/A     16   7  67 NW14      30.13R WCI   1
OTTUMWA        MOCLDY    15   6  67 NW23      30.13R WCI  -3
6HR MIN TEMP:  15; 6HR MAX TEMP:  18;

WASHINGTON *   PTCLDY    14   5  67 NW22      30.11R WCI  -4
$$

ABBREVIATIONS USED IN REMARKS
   TC - TEMPERATURES IN CELSIUS
  WCI - WIND CHILL INDEX
   HX - HEAT INDEX
  VSB - VISIBILITY
$$




USA.gov is the U.S. government's official web portal to all federal, state and local government web resources and services.